Zurück zum Katalog

STARLINK-35333

AktivKommunikationVLEO
NORAD 66182·PAYLOAD·🇺🇸 United States

Gestartet Oct 26, 2025 von Cape Canaveral Space Force Station

Loading…

Nächste Überflüge (nächste 24 Stunden)

TLE

AktuellSource: CelesTrak SupGP

Epoche: Sep 14, 2026, 15:19 UTC

1 66182C 25243F   26257.63868056 -.00026283  00000+0 -77634-3 0  2572
2 66182  53.1580  84.9971 0001216  96.8966 113.1065 15.34411940    19

Verfolge STARLINK-35333 in Echtzeit mit AllMySat

Download on the App Store